Location: Caltech
(34.1382°N, 118.1253°W)
Time: 19:53:00
(UTC-07:00)

AO-7 - Visible Passes

Search period start: 27 July 2016 00:00
Search period end: 06 August 2016 00:00
Orbit: 1440 x 1458 km, 101.6° (Epoch: 27 July)

Date Brightness Start Highest point End Pass type
(mag) Time Alt. Az. Time Alt. Az. Time Alt. Az.
27 Jul ? 03:52:05 10° NNE 03:59:41 38° E 04:07:13 10° SSE visible
28 Jul ? 02:55:44 10° ENE 02:59:05 13° E 03:02:24 10° ESE visible
28 Jul ? 04:44:23 10° NNE 04:52:48 83° ESE 05:01:07 10° SSW visible
29 Jul ? 03:45:18 10° NE 03:52:40 34° E 03:59:57 10° SSE visible
30 Jul ? 02:50:14 10° ENE 02:52:00 11° E 02:53:46 10° ESE visible
30 Jul ? 04:37:27 10° NNE 04:45:50 76° ESE 04:54:07 10° SSW visible
31 Jul ? 03:38:33 10° NE 03:45:39 30° E 03:52:40 10° SSE visible
31 Jul ? 05:30:36 10° N 05:38:35 52° WNW 05:46:31 10° SW visible
01 Aug ? 04:30:32 10° NNE 04:38:52 69° ESE 04:47:07 10° S visible
02 Aug ? 03:31:51 10° NE 03:38:38 27° E 03:45:20 10° SSE visible
02 Aug ? 05:23:34 10° N 05:31:40 57° WNW 05:39:43 10° SW visible
03 Aug ? 04:23:38 10° NNE 04:31:54 62° ESE 04:40:04 10° S visible
04 Aug ? 03:25:11 10° NE 03:31:35 24° E 03:37:56 10° SSE visible
04 Aug ? 05:16:33 10° N 05:24:45 63° WNW 05:32:54 10° SSW visible
05 Aug ? 04:16:45 10° NNE 04:24:55 56° ESE 04:33:00 10° S visible
